DELTA 1 DEB, 2518

Orbit data source: Space-Track

DELTA 1 DEB, 2518 is space debris in SSO originally from a launch on Sun, 02 Oct 1966 UTC launched from the Air Force Western Test Range (AFWTR). Debris objects in space refer to the collection of defunct objects orbiting the Earth. Examples of debris include non-operational satellites, rocket bodies, and fragments generated from explosions, collisions, or faulty payload assembly.

Loading next visibility...
Identifier
2518, 1966-087C
Orbit
SSO
Country
Flag of USUS
Related business
Manufacturer
Unknown
Mission
Spacecraft
Bus & Motor
Unknown
Mass
1 kg wet, 1 kg dry
Launch date (UTC)
1966-10-02 (59 years ago)
Launch vehicle
Unknown
Launch site
Air Force Western Test Range (AFWTR)
Object type
Payload
Rocket body
Debris
Shape & HBR
Unknown
Radar Cross Section
Small (<0.1 m²)

Expand to show TLE details & history
Last TLE update: 3 days ago

TLE from 3 days ago
0 DELTA 1 DEB
1 02518U 66087C   25307.53091611 -.00000030  00000-0  65887-4 0  9998
2 02518 100.8541  54.9057 0080359 284.2126  94.0543 12.42696864679394
Epoch: 2025-11-03T12:44Z
TLE epoch observation values (Epoch: 2025-11-03T12:44:31.151Z)
Latitude
18.82691°
Longitude
177.01498°
Altitude
1,502.29 km
Speed
7.113 km/s
True Right ascension
03h 24m 42s
True Declination
18° 43' 55"
Sunlit
Object was in full shadow at epoch
Visualization orbit readout
Latitude
Unknown
Longitude
Unknown
Altitude
Unknown
Speed
Unknown
Apparent Right ascension
Unknown
Apparent Declination
Unknown
Sunlit
N/A
Visualization observer readout
Local Sidereal Time
10:50:19
Azimuth
Unknown
Elevation
Unknown
Doppler factor
Unknown
Orbital elements
Apogee altitude
1,555.947 km
Perigee altitude
1,429.448 km
Semi-major axis
7,870.834 km
Eccentricity
0.00804
Inclination
100.8541°
RAAN
54.9057°
Arg. of periapsis
284.2126°
True anomaly
94.97215°
Mean anomaly
94.0543°
Eccentric anomaly
94.5133°
Mean motion
3.10822 °/min
Orbital period
115.82 mins
BSTAR
0.000065887
Loading maneuver chart data...
Computing Atmospheric mass density...
Loading historical data...
Loading historical data...
Loading historical data...
Loading historical data...
Loading historical data...
Loading historical data...
Loading historical data...
Other satellites on launch #87 in the year 1966 (1966-10-02 UTC)

Documentation

Showing up to 5 results
|